Location: Newark
(48.5178°N, 4.2361°E)
Time: 01:31:13
(UTC+00:00)

Envisat - Pass Details

Date: 08 March 2021
Orbit: 764 x 766 km, 98.1° (Epoch: 11 April)

Event Time Altitude Azimuth Distance (km) Brightness Sun altitude
Rises 18:11:21 0° 225° (SW) 3,224 7.0 -6.4°
Reaches altitude 10° 18:15:52 10° 263° (W) 2,306 7.2 -7.1°
Maximum altitude 18:16:59 11° 276° (W) 2,263 7.2 -7.3°
Drops below altitude 10° 18:18:06 10° 289° (WNW) 2,310 6.9 -7.5°
Sets 18:22:40 0° 327° (NNW) 3,244 6.8 -8.2°
